Terug naar catalogus

STARLINK-31169

ActiefCommunicatieVLEO
NORAD 58809·PAYLOAD·🇺🇸 United States

Gelanceerd Jan 15, 2024 vanaf Cape Canaveral Space Force Station

Loading…

Volgende Passages (komende 24 uur)

TLE

VersSource: CelesTrak SupGP

Epoch: Sep 15, 2026, 02:50 UTC

1 58809C 24012Y   26258.11854167 -.00015474  00000+0 -56059-3 0  2583
2 58809  43.0023 175.5449 0001415 272.6852 157.3341 15.27579219    15

Volg STARLINK-31169 in realtime met AllMySat

Download on the App Store